TimeCST,TemperatureF,Dew PointF,Humidity,Sea Level PressureIn,VisibilityMPH,Wind Direction,Wind SpeedMPH,Gust SpeedMPH,PrecipitationIn,Events,Conditions,WindDirDegrees,DateUTC
12:55 AM,24.1,8.1,51,30.69,10.0,WNW,10.4,-,N/A,,Clear,300,2012-01-02 06:55:00
1:55 AM,23.0,6.8,50,30.65,10.0,WNW,9.2,-,N/A,,Clear,300,2012-01-02 07:55:00
2:55 AM,21.9,7.0,53,30.70,10.0,WNW,11.5,-,N/A,,Clear,300,2012-01-02 08:55:00
3:55 AM,19.9,7.0,57,30.71,10.0,WNW,9.2,-,N/A,,Clear,300,2012-01-02 09:55:00
4:55 AM,19.9,7.0,57,30.72,10.0,WNW,11.5,-,N/A,,Clear,300,2012-01-02 10:55:00
5:55 AM,18.0,6.1,60,30.71,10.0,WNW,8.1,-,N/A,,Clear,300,2012-01-02 11:55:00
6:55 AM,16.0,6.1,65,30.71,10.0,WNW,8.1,-,N/A,,Clear,290,2012-01-02 12:55:00
7:55 AM,15.1,6.1,68,30.73,10.0,West,6.9,-,N/A,,Clear,280,2012-01-02 13:55:00
8:55 AM,19.4,8.6,63,30.70,10.0,WNW,10.4,-,N/A,,Clear,290,2012-01-02 14:55:00
9:55 AM,23.0,8.6,54,30.70,10.0,WNW,11.5,-,N/A,,Clear,300,2012-01-02 15:55:00
10:55 AM,28.0,10.0,47,30.75,10.0,WNW,10.4,-,N/A,,Clear,290,2012-01-02 16:55:00
11:55 AM,35.1,6.1,30,30.70,10.0,WNW,11.5,-,N/A,,Clear,300,2012-01-02 17:55:00
12:55 PM,37.0,3.0,24,30.68,10.0,NW,12.7,19.6,N/A,,Clear,320,2012-01-02 18:55:00
1:55 PM,39.0,7.0,27,30.64,10.0,NNW,15.0,-,N/A,,Clear,340,2012-01-02 19:55:00
2:55 PM,39.0,7.0,27,30.62,10.0,NW,10.4,-,N/A,,Clear,320,2012-01-02 20:55:00
3:55 PM,37.9,8.1,29,30.61,10.0,WNW,6.9,-,N/A,,Clear,300,2012-01-02 21:55:00
4:55 PM,36.0,8.1,31,30.61,10.0,NNW,3.5,-,N/A,,Clear,330,2012-01-02 22:55:00
5:55 PM,32.0,8.1,37,30.59,10.0,Calm,Calm,-,N/A,,Clear,0,2012-01-02 23:55:00
6:55 PM,30.0,9.0,41,30.58,10.0,South,3.5,-,N/A,,Clear,190,2012-01-03 00:55:00
7:55 PM,26.1,10.0,51,30.57,10.0,SSW,6.9,-,N/A,,Clear,200,2012-01-03 01:55:00
8:55 PM,25.0,10.0,53,30.58,10.0,Calm,Calm,-,N/A,,Clear,0,2012-01-03 02:55:00
9:55 PM,21.9,10.9,63,30.55,10.0,Calm,Calm,-,N/A,,Clear,0,2012-01-03 03:55:00
10:55 PM,21.9,10.0,60,30.51,10.0,SE,4.6,-,N/A,,Clear,140,2012-01-03 04:55:00
11:55 PM,21.9,10.9,63,30.48,10.0,ESE,4.6,-,N/A,,Clear,120,2012-01-03 05:55:00